STARLINK-35942 (66926 NORAD) Tracking and Keplerian Element Data

This shows tracking and keplerian element data for the satellite.

Feedback or suggestion? Click here.




ElementValue
Catalog66926
NameSTARLINK-35942
Epoch Orbit319
Epoch Day354.25003472
Epoch Year2025
RAAN12.7235
Inclination53.1561
Eccentricity9.09E-05
Argument of Perigee83.4081
Mean Anonmoly151.0679
Mean Motion15.77938391
Decay Rate-0.01402281
L11 66926U 25286B 25354.25003472 -.01402281 00000+0 -91355-2 0 9998
L22 66926 53.1561 12.7235 0000909 83.4081 151.0679 15.77938391 3199



Live tracking and technical data element details for STARLINK-35942 (NORAD 66926). STARLINK-35942 can be tracked NOW for your location showing map with azimuth and elevation plus other details from your city location.







IsCatalogInMostPopularTable: catalog: 66926, numindb: 23
Update: records affected: 1



GetName: 66926 STARLINK-35942

Hit Count: updated at: Thu, 16 Apr 2026 05:51:33 GMT